When you browse on this site, cookies collect data to enhance your experience and personalize the content and advertising you see.
Visit our Privacy Policy to learn more. By continuing to use the site, you agree to this use of cookies and data.
  • In Hungary
  • List of Countries
  • For 7 days
  • Water Temperature
  • Satellite Maps
  • Weather Map
  • News
  • Weather Widgets
  • user-avatar
    Login

    Hourly Weather Kochanow

    Today, 22 May, Wednesday

    Time Temperature Precipitation Wind Pressure Humidity
    00:00 +13°C° 0.5 mm 5 mps 730 mmHg 92%
    01:00 +13°C° 0 mm 5 mps 729 mmHg 94%
    02:00 +13°C° 0.6 mm 5 mps 729 mmHg 94%
    03:00 +13°C° 0.6 mm 4 mps 729 mmHg 95%
    04:00 +13°C° 0.6 mm 4 mps 729 mmHg 95%
    05:00 +14°C° 0.4 mm 4 mps 730 mmHg 93%
    06:00 +14°C° 0.4 mm 5 mps 730 mmHg 91%
    07:00 +14°C° 0 mm 4 mps 730 mmHg 88%
    08:00 +14°C° 0.6 mm 4 mps 730 mmHg 87%
    09:00 +14°C° 0.6 mm 4 mps 730 mmHg 86%
    10:00 +14°C° 0.6 mm 4 mps 730 mmHg 85%
    11:00 +14°C° 0.6 mm 4 mps 731 mmHg 86%
    12:00 +14°C° 0.6 mm 4 mps 731 mmHg 87%
    13:00 +14°C° 0.6 mm 3 mps 731 mmHg 88%
    14:00 +15°C° 0.9 mm 4 mps 731 mmHg 86%
    15:00 +15°C° 0.9 mm 4 mps 731 mmHg 84%
    16:00 +16°C° 0.9 mm 5 mps 731 mmHg 82%
    17:00 +16°C° 2.1 mm 5 mps 731 mmHg 85%
    18:00 +15°C° 2.1 mm 6 mps 732 mmHg 88%
    19:00 +14°C° 2.1 mm 6 mps 732 mmHg 91%
    20:00 +14°C° 1.2 mm 6 mps 732 mmHg 92%
    21:00 +14°C° 1.2 mm 7 mps 733 mmHg 93%
    22:00 +14°C° 1.2 mm 7 mps 733 mmHg 94%
    23:00 +14°C° 0.5 mm 7 mps 733 mmHg 94%

    Tomorrow, 23 May, Thursday

    Time Temperature Precipitation Wind Pressure Humidity
    00:00 +14°C° 0.5 mm 6 mps 734 mmHg 94%
    01:00 +13°C° 0.5 mm 6 mps 734 mmHg 94%
    02:00 +13°C° 0.6 mm 6 mps 734 mmHg 94%
    03:00 +13°C° 0.6 mm 6 mps 734 mmHg 94%
    04:00 +13°C° 0.6 mm 5 mps 734 mmHg 95%
    05:00 +13°C° 0.7 mm 5 mps 735 mmHg 94%
    06:00 +13°C° 0.7 mm 5 mps 735 mmHg 94%
    07:00 +13°C° 0.7 mm 5 mps 735 mmHg 94%
    08:00 +13°C° 0.7 mm 5 mps 736 mmHg 94%
    09:00 +13°C° 0.7 mm 5 mps 736 mmHg 94%
    10:00 +12°C° 0.7 mm 5 mps 737 mmHg 93%
    11:00 +12°C° 0.8 mm 5 mps 737 mmHg 93%
    12:00 +12°C° 0.8 mm 5 mps 737 mmHg 93%
    13:00 +12°C° 0.8 mm 5 mps 737 mmHg 93%
    14:00 +12°C° 0.6 mm 5 mps 737 mmHg 93%
    15:00 +12°C° 0.6 mm 5 mps 737 mmHg 93%
    16:00 +12°C° 0.6 mm 5 mps 737 mmHg 93%
    17:00 +12°C° 0.6 mm 5 mps 737 mmHg 93%
    18:00 +12°C° 0.6 mm 5 mps 737 mmHg 94%
    19:00 +12°C° 0.6 mm 4 mps 738 mmHg 94%
    20:00 +12°C° 0.5 mm 4 mps 738 mmHg 93%
    21:00 +12°C° 0.5 mm 4 mps 738 mmHg 93%
    22:00 +12°C° 0.5 mm 5 mps 738 mmHg 93%
    23:00 +12°C° 1 mm 4 mps 738 mmHg 93%

    Day after tomorrow, 24 May, Friday

    Time Temperature Precipitation Wind Pressure Humidity
    00:00 +12°C° 1 mm 4 mps 738 mmHg 94%
    01:00 +12°C° 1 mm 4 mps 738 mmHg 94%
    02:00 +12°C° 1.1 mm 4 mps 738 mmHg 94%
    03:00 +11°C° 1.1 mm 3 mps 738 mmHg 94%
    04:00 +11°C° 1.1 mm 3 mps 738 mmHg 94%
    05:00 +11°C° 0.7 mm 3 mps 738 mmHg 94%
    06:00 +11°C° 0.7 mm 3 mps 738 mmHg 93%
    07:00 +10°C° 0.7 mm 2 mps 738 mmHg 92%
    08:00 +12°C° 0.5 mm 2 mps 738 mmHg 89%
    09:00 +12°C° 0.5 mm 2 mps 738 mmHg 86%
    10:00 +13°C° 0.5 mm 2 mps 738 mmHg 83%
    11:00 +14°C° 0.1 mm 2 mps 738 mmHg 79%
    12:00 +16°C° 0.1 mm 2 mps 738 mmHg 74%
    13:00 +17°C° 0.1 mm 2 mps 738 mmHg 69%
    14:00 +18°C° 0 mm 2 mps 737 mmHg 70%
    15:00 +18°C° 0 mm 2 mps 737 mmHg 71%
    16:00 +18°C° 0 mm 2 mps 737 mmHg 71%
    17:00 +18°C° 0 mm 1 mps 737 mmHg 74%
    18:00 +18°C° 0 mm 1 mps 737 mmHg 76%
    19:00 +16°C° 0 mm 1 mps 736 mmHg 79%
    20:00 +15°C° 0 mm 1 mps 737 mmHg 81%
    21:00 +14°C° 0 mm 1 mps 737 mmHg 83%
    22:00 +13°C° 0 mm 1 mps 737 mmHg 85%
    23:00 +13°C° 0 mm 1 mps 737 mmHg 86%

    25 May, Saturday

    Time Temperature Precipitation Wind Pressure Humidity
    00:00 +12°C° 0 mm 1 mps 737 mmHg 86%
    01:00 +12°C° 0 mm 1 mps 737 mmHg 87%
    02:00 +12°C° 0 mm 1 mps 737 mmHg 88%
    03:00 +11°C° 0 mm 1 mps 737 mmHg 90%
    04:00 +11°C° 0 mm 1 mps 737 mmHg 91%
    05:00 +12°C° 0 mm 1 mps 737 mmHg 87%
    06:00 +14°C° 0 mm 1 mps 737 mmHg 83%
    07:00 +16°C° 0 mm 2 mps 737 mmHg 78%
    08:00 +17°C° 0 mm 2 mps 737 mmHg 73%
    09:00 +18°C° 0 mm 2 mps 737 mmHg 68%
    10:00 +20°C° 0 mm 2 mps 737 mmHg 62%
    11:00 +20°C° 0.1 mm 2 mps 737 mmHg 60%
    12:00 +21°C° 0.1 mm 3 mps 737 mmHg 58%
    13:00 +22°C° 0.1 mm 3 mps 737 mmHg 56%
    14:00 +22°C° 0 mm 3 mps 736 mmHg 56%
    15:00 +22°C° 0 mm 3 mps 736 mmHg 57%
    16:00 +22°C° 0 mm 4 mps 736 mmHg 57%
    17:00 +20°C° 0 mm 3 mps 736 mmHg 64%
    18:00 +19°C° 0 mm 2 mps 736 mmHg 71%
    19:00 +17°C° 0 mm 2 mps 736 mmHg 77%
    20:00 +16°C° 0 mm 1 mps 736 mmHg 80%
    21:00 +15°C° 0 mm 1 mps 737 mmHg 83%
    22:00 +12°C° 0 mm 0 mps 737 mmHg 87%
    23:00 +13°C° 0 mm 1 mps 737 mmHg 87%

    26 May, Sunday

    Time Temperature Precipitation Wind Pressure Humidity
    00:00 +13°C° 0 mm 1 mps 737 mmHg 88%
    01:00 +13°C° 0 mm 1 mps 737 mmHg 89%
    02:00 +13°C° 0 mm 1 mps 737 mmHg 90%
    03:00 +12°C° 0 mm 1 mps 737 mmHg 91%
    04:00 +12°C° 0 mm 1 mps 737 mmHg 91%
    05:00 +13°C° 0 mm 2 mps 737 mmHg 88%
    06:00 +15°C° 0 mm 2 mps 737 mmHg 85%
    07:00 +16°C° 0 mm 2 mps 737 mmHg 81%
    08:00 +17°C° 0 mm 2 mps 737 mmHg 77%
    09:00 +18°C° 0 mm 2 mps 736 mmHg 73%
    10:00 +19°C° 0 mm 3 mps 736 mmHg 69%
    11:00 +19°C° 0.2 mm 3 mps 736 mmHg 67%
    12:00 +20°C° 0.2 mm 4 mps 736 mmHg 65%
    13:00 +20°C° 0.2 mm 5 mps 736 mmHg 63%
    14:00 +20°C° 0.2 mm 5 mps 736 mmHg 64%
    15:00 +19°C° 0.2 mm 4 mps 736 mmHg 66%
    16:00 +19°C° 0.2 mm 4 mps 736 mmHg 67%
    17:00 +18°C° 0 mm 4 mps 736 mmHg 69%
    18:00 +16°C° 0 mm 3 mps 736 mmHg 71%
    19:00 +15°C° 0 mm 2 mps 736 mmHg 73%
    20:00 +14°C° 0 mm 2 mps 736 mmHg 72%
    21:00 +13°C° 0 mm 2 mps 737 mmHg 72%
    22:00 +12°C° 0 mm 2 mps 737 mmHg 71%
    23:00 +12°C° 0 mm 2 mps 737 mmHg 71%

    27 May, Monday

    Time Temperature Precipitation Wind Pressure Humidity
    00:00 +12°C° 0 mm 2 mps 738 mmHg 72%
    01:00 +10°C° 0 mm 2 mps 738 mmHg 72%
    02:00 +11°C° 0 mm 1 mps 738 mmHg 77%
    03:00 +10°C° 0 mm 1 mps 738 mmHg 82%
    04:00 +9°C° 0 mm 1 mps 738 mmHg 87%
    05:00 +11°C° 0 mm 1 mps 738 mmHg 82%
    06:00 +12°C° 0 mm 1 mps 738 mmHg 78%
    07:00 +14°C° 0 mm 1 mps 738 mmHg 73%
    08:00 +16°C° 0 mm 1 mps 738 mmHg 68%
    09:00 +18°C° 0 mm 1 mps 737 mmHg 62%
    10:00 +19°C° 0 mm 2 mps 737 mmHg 57%
    11:00 +20°C° 0 mm 2 mps 737 mmHg 55%
    12:00 +22°C° 0 mm 1 mps 737 mmHg 54%
    13:00 +23°C° 0 mm 1 mps 736 mmHg 52%
    14:00 +23°C° 0 mm 2 mps 736 mmHg 54%
    15:00 +23°C° 0 mm 2 mps 735 mmHg 57%
    16:00 +23°C° 0 mm 2 mps 735 mmHg 60%
    17:00 +20°C° 0 mm 3 mps 734 mmHg 67%
    18:00 +19°C° 0 mm 3 mps 734 mmHg 74%
    19:00 +18°C° 0 mm 3 mps 734 mmHg 81%
    20:00 +17°C° 0 mm 2 mps 734 mmHg 83%
    21:00 +16°C° 0 mm 2 mps 733 mmHg 86%
    22:00 +16°C° 0 mm 2 mps 733 mmHg 88%
    23:00 +15°C° 0 mm 2 mps 733 mmHg 89%
    Show more